TimeEST,TemperatureF,Dew PointF,Humidity,Sea Level PressureIn,VisibilityMPH,Wind Direction,Wind SpeedMPH,Gust SpeedMPH,PrecipitationIn,Events,Conditions,WindDirDegrees,DateUTC
12:53 AM,54.0,51.1,90,29.96,10.0,Calm,Calm,-,N/A,,Overcast,0,2011-11-28 05:53:00
1:53 AM,53.1,50.0,89,29.95,10.0,NNW,3.5,-,N/A,,Overcast,340,2011-11-28 06:53:00
2:53 AM,53.1,51.1,93,29.96,7.0,Calm,Calm,-,0.00,,Overcast,0,2011-11-28 07:53:00
3:53 AM,52.0,50.0,93,29.95,10.0,ENE,5.8,-,0.01,,Overcast,70,2011-11-28 08:53:00
4:53 AM,53.1,50.0,89,29.96,10.0,Calm,Calm,-,N/A,,Mostly Cloudy,0,2011-11-28 09:53:00
5:53 AM,53.1,48.9,86,29.96,10.0,Calm,Calm,-,N/A,,Partly Cloudy,0,2011-11-28 10:53:00
6:53 AM,55.9,48.9,77,29.99,10.0,Calm,Calm,-,N/A,,Mostly Cloudy,0,2011-11-28 11:53:00
7:53 AM,57.9,48.0,70,29.99,10.0,East,4.6,-,N/A,,Clear,100,2011-11-28 12:53:00
8:53 AM,59.0,48.9,69,29.99,10.0,ESE,6.9,-,N/A,,Clear,120,2011-11-28 13:53:00
9:53 AM,62.1,51.1,67,30.00,10.0,East,3.5,-,N/A,,Clear,100,2011-11-28 14:53:00
10:53 AM,64.0,51.1,63,30.00,10.0,SSE,5.8,-,N/A,,Clear,150,2011-11-28 15:53:00
11:53 AM,66.0,51.1,59,29.98,10.0,SSE,8.1,-,N/A,,Clear,160,2011-11-28 16:53:00
12:53 PM,66.0,51.1,59,29.96,10.0,SSE,6.9,-,N/A,,Clear,160,2011-11-28 17:53:00
1:53 PM,66.9,52.0,59,29.95,10.0,SSE,3.5,-,N/A,,Clear,150,2011-11-28 18:53:00
2:53 PM,66.0,48.9,54,29.93,10.0,ESE,8.1,-,N/A,,Mostly Cloudy,120,2011-11-28 19:53:00
3:53 PM,66.0,48.0,52,29.93,10.0,SE,9.2,-,N/A,,Clear,140,2011-11-28 20:53:00
4:53 PM,64.9,48.9,56,29.93,10.0,East,6.9,-,N/A,,Clear,100,2011-11-28 21:53:00
5:53 PM,64.0,50.0,60,29.92,10.0,ESE,6.9,-,N/A,,Clear,110,2011-11-28 22:53:00
6:53 PM,63.0,50.0,63,29.90,10.0,ESE,8.1,-,N/A,,Clear,120,2011-11-28 23:53:00
7:53 PM,63.0,50.0,63,29.87,10.0,ESE,11.5,-,N/A,,Clear,110,2011-11-29 00:53:00
8:53 PM,64.0,50.0,60,29.86,10.0,SE,11.5,20.7,N/A,,Clear,140,2011-11-29 01:53:00
9:53 PM,63.0,50.0,63,29.83,10.0,ESE,4.6,-,N/A,,Clear,110,2011-11-29 02:53:00
10:53 PM,64.0,51.1,63,29.81,10.0,SE,8.1,-,N/A,,Clear,140,2011-11-29 03:53:00
11:53 PM,63.0,52.0,67,29.80,10.0,ESE,5.8,16.1,N/A,,Scattered Clouds,120,2011-11-29 04:53:00